Binghamton, NY

9:56 AM EST on November 21, 2019 (GMT -0500)
Binghamton Regional-Link

Weather History for KBGM - September, 2019

Change the Weather History Date:

Tuesday, September 17, 2019

  Actual Average Record
Temperature  
Mean Temperature 60 °F 59 °F  
Max Temperature 71 °F 68 °F 84 °F (1972)
Min Temperature 48 °F 50 °F 35 °F (1959)
Degree Days  
Heating Degree Days 5 7  
Month to date heating degree days 71 76  
Since 1 July heating degree days 108 139  
Cooling Degree Days 0 1  
Month to date cooling degree days 9 24  
Year to date cooling degree days 371 372  
Growing Degree Days 10 (Base 50)    
Moisture  
Dew Point 46 °F    
Average Humidity 62    
Maximum Humidity 86    
Minimum Humidity 37    
Precipitation  
Precipitation 0.00 in 0.12 in 2.92 in (2004)
Month to date precipitation 1.60 2.00  
Year to date precipitation 30.39 28.21  
Snow  
Snow 0.00 in 0.00 in 0.00 in (2002)
Month to date snowfall 0.0 0.0  
Since 1 July snowfall 0.0 0.0  
Since 1 September snowfall 0.0 0.0  
Snow Depth 0.00 in    
Sea Level Pressure  
Sea Level Pressure 30.19 in    
Wind  
Wind Speed 7 mph (NNE)    
Max Wind Speed 16 mph    
Max Gust Speed 20 mph    
Visibility 10 miles    
Events      
T = Trace of Precipitation, MM = Missing Value Source: NWS Daily Summary

Daily Weather History Graph

Daily Weather History Graph

Search for Another Location

Airport or City:

Astronomy

Sep. 17, 2019 Rise Set
Actual Time 6:45 AM EDT 7:10 PM EDT
Civil Twilight 6:17 AM EDT 7:38 PM EDT
Nautical Twilight 5:44 AM EDT 8:11 PM EDT
Astronomical Twilight 5:10 AM EDT 8:45 PM EDT
Moon 9:09 PM EDT (9/17) 9:50 AM EDT (9/17)
Length of Visible Light 13h 20m
Length of Day
12h 24m
Waning Gibbous, 89% of the Moon is Illuminated
Sep 17
Waning Gibbous
Sep 21
Last Quarter
Sep 28
New
Oct 5
First Quarter
Oct 13
Full

Hourly Weather History & Observations

Time (EDT) Temp. Dew Point Humidity Pressure Visibility Wind Dir Wind Speed Gust Speed Precip Events Conditions
12:53 AM 52.0 °F 46.9 °F 83% 30.15 in 10.0 mi NNE 5.8 mph - N/A   Clear
1:53 AM 50.0 °F 46.9 °F 89% 30.15 in 10.0 mi ENE 5.8 mph - N/A   Clear
2:53 AM 51.1 °F 46.0 °F 83% 30.14 in 10.0 mi NE 6.9 mph - N/A   Clear
3:53 AM 50.0 °F 45.0 °F 83% 30.14 in 10.0 mi NE 6.9 mph - N/A   Clear
4:53 AM 48.9 °F 45.0 °F 86% 30.15 in 10.0 mi NE 4.6 mph - N/A   Clear
5:53 AM 48.9 °F 44.1 °F 83% 30.16 in 10.0 mi NNE 3.5 mph - N/A   Clear
6:53 AM 48.0 °F 44.1 °F 86% 30.19 in 10.0 mi Calm Calm - N/A   Clear
7:53 AM 52.0 °F 46.0 °F 80% 30.20 in 10.0 mi Calm Calm - N/A   Clear
8:53 AM 55.0 °F 46.9 °F 74% 30.21 in 10.0 mi Calm Calm - N/A   Clear
9:53 AM 59.0 °F 48.0 °F 67% 30.23 in 10.0 mi Variable 4.6 mph - N/A   Clear
10:53 AM 63.0 °F 48.9 °F 60% 30.22 in 10.0 mi Variable 3.5 mph - N/A   Clear
11:53 AM 64.9 °F 44.1 °F 47% 30.22 in 10.0 mi North 10.4 mph - N/A   Clear
12:53 PM 68.0 °F 46.0 °F 45% 30.21 in 10.0 mi NNW 10.4 mph - N/A   Clear
1:53 PM 68.0 °F 44.1 °F 42% 30.19 in 10.0 mi North 9.2 mph - N/A   Clear
2:53 PM 69.1 °F 45.0 °F 42% 30.18 in 10.0 mi North 12.7 mph - N/A   Clear
3:53 PM 69.1 °F 43.0 °F 39% 30.17 in 10.0 mi NE 9.2 mph - N/A   Clear
4:53 PM 68.0 °F 43.0 °F 40% 30.17 in 10.0 mi NNE 10.4 mph 18.4 mph N/A   Clear
5:53 PM 66.9 °F 46.9 °F 49% 30.17 in 10.0 mi North 11.5 mph - N/A   Clear
6:53 PM 63.0 °F 46.9 °F 56% 30.18 in 10.0 mi North 8.1 mph - N/A   Clear
7:53 PM 60.1 °F 45.0 °F 57% 30.19 in 10.0 mi North 9.2 mph - N/A   Clear
8:53 PM 57.0 °F 46.0 °F 67% 30.20 in 10.0 mi North 8.1 mph - N/A   Clear
9:53 PM 55.9 °F 46.0 °F 69% 30.21 in 10.0 mi North 9.2 mph - N/A   Clear
10:53 PM 55.9 °F 46.0 °F 69% 30.22 in 10.0 mi North 10.4 mph - N/A   Clear
11:53 PM 52.0 °F 45.0 °F 77% 30.22 in 10.0 mi NNE 5.8 mph - N/A   Clear